TimeCST,TemperatureF,Dew PointF,Humidity,Sea Level PressureIn,VisibilityMPH,Wind Direction,Wind SpeedMPH,Gust SpeedMPH,PrecipitationIn,Events,Conditions,WindDirDegrees,DateUTC
12:15 AM,44.1,23.0,43,30.12,10.0,WNW,21.9,26.5,N/A,,Clear,290,2013-11-10 06:15:00
12:35 AM,43.3,23.7,46,30.13,10.0,WNW,19.6,25.3,N/A,,Clear,290,2013-11-10 06:35:00
12:55 AM,42.8,23.2,46,30.13,10.0,West,12.7,24.2,N/A,,Clear,280,2013-11-10 06:55:00
1:15 AM,42.3,23.5,48,30.13,10.0,West,17.3,24.2,N/A,,Clear,280,2013-11-10 07:15:00
1:35 AM,42.1,23.9,49,30.14,10.0,West,15.0,21.9,N/A,,Scattered Clouds,280,2013-11-10 07:35:00
1:55 AM,41.9,24.8,51,30.14,10.0,West,16.1,19.6,N/A,,Mostly Cloudy,270,2013-11-10 07:55:00
2:15 AM,41.4,24.8,52,30.15,10.0,West,15.0,21.9,N/A,,Scattered Clouds,280,2013-11-10 08:15:00
2:35 AM,41.0,25.3,54,30.15,10.0,West,15.0,20.7,N/A,,Clear,280,2013-11-10 08:35:00
2:55 AM,40.5,25.7,56,30.16,10.0,West,12.7,19.6,N/A,,Clear,270,2013-11-10 08:55:00
3:15 AM,40.1,26.2,58,30.17,10.0,West,12.7,19.6,N/A,,Clear,270,2013-11-10 09:15:00
3:35 AM,39.6,26.6,60,30.17,10.0,West,15.0,20.7,N/A,,Clear,270,2013-11-10 09:35:00
4:45 AM,39.2,26.6,61,30.20,10.0,West,13.8,-,N/A,,Clear,280,2013-11-10 10:45:00
5:45 AM,37.4,26.6,65,30.23,10.0,West,17.3,-,N/A,,Clear,280,2013-11-10 11:45:00
6:45 AM,35.6,26.6,70,30.26,20.0,West,17.3,-,N/A,,Clear,280,2013-11-10 12:45:00
7:47 AM,37.4,28.4,70,30.28,20.0,West,13.8,-,N/A,,Clear,270,2013-11-10 13:47:00
8:45 AM,41.0,28.4,61,30.31,20.0,WNW,19.6,-,N/A,,Clear,290,2013-11-10 14:45:00
9:45 AM,44.6,28.4,53,30.33,20.0,WNW,17.3,-,N/A,,Clear,290,2013-11-10 15:45:00
10:45 AM,46.4,28.4,50,30.34,20.0,West,8.1,-,N/A,,Partly Cloudy,280,2013-11-10 16:45:00
11:45 AM,48.2,26.6,43,30.33,20.0,WNW,5.8,-,N/A,,Partly Cloudy,300,2013-11-10 17:45:00
12:45 PM,48.2,26.6,43,30.31,20.0,WSW,4.6,-,N/A,,Clear,250,2013-11-10 18:45:00
1:45 PM,50.0,26.6,40,30.32,20.0,Calm,Calm,-,N/A,,Clear,0,2013-11-10 19:45:00
2:45 PM,50.0,26.6,40,30.31,15.0,Calm,Calm,-,N/A,,Clear,0,2013-11-10 20:45:00
3:45 PM,48.2,26.6,43,30.31,15.0,SW,9.2,-,N/A,,Clear,230,2013-11-10 21:45:00
4:45 PM,46.4,28.4,50,30.30,15.0,SSW,6.9,-,N/A,,Clear,210,2013-11-10 22:45:00
5:45 PM,39.2,30.2,70,30.31,10.0,Calm,Calm,-,N/A,,Clear,0,2013-11-10 23:45:00
6:45 PM,37.4,30.2,75,30.29,10.0,Calm,Calm,-,N/A,,Mostly Cloudy,0,2013-11-11 00:45:00
7:45 PM,42.8,30.2,61,30.30,10.0,Calm,Calm,-,N/A,,Overcast,0,2013-11-11 01:45:00
8:15 PM,43.0,30.2,61,30.29,10.0,Calm,Calm,-,N/A,,Overcast,0,2013-11-11 02:15:00
8:35 PM,42.8,30.6,62,30.29,10.0,Calm,Calm,-,N/A,,Mostly Cloudy,0,2013-11-11 02:35:00
8:45 PM,42.8,30.2,61,30.28,10.0,Calm,Calm,-,N/A,,Mostly Cloudy,0,2013-11-11 02:45:00
8:55 PM,43.2,30.6,61,30.28,10.0,Calm,Calm,-,N/A,,Mostly Cloudy,0,2013-11-11 02:55:00
9:15 PM,43.7,30.2,59,30.28,10.0,SSW,3.5,-,N/A,,Mostly Cloudy,210,2013-11-11 03:15:00
9:35 PM,43.9,30.2,59,30.27,10.0,SSW,4.6,-,N/A,,Mostly Cloudy,210,2013-11-11 03:35:00
9:45 PM,44.6,30.2,57,30.27,10.0,Calm,Calm,-,N/A,,Mostly Cloudy,0,2013-11-11 03:45:00
9:55 PM,43.9,30.4,59,30.26,10.0,SSW,3.5,-,N/A,,Scattered Clouds,210,2013-11-11 03:55:00
10:15 PM,44.1,30.2,58,30.25,10.0,SSW,4.6,-,N/A,,Mostly Cloudy,210,2013-11-11 04:15:00
10:35 PM,44.2,30.6,59,30.24,10.0,Calm,Calm,-,N/A,,Mostly Cloudy,0,2013-11-11 04:35:00
10:55 PM,44.1,30.6,59,30.24,10.0,SSW,3.5,-,N/A,,Overcast,200,2013-11-11 04:55:00
11:15 PM,44.2,30.7,59,30.24,10.0,SW,4.6,-,N/A,,Overcast,220,2013-11-11 05:15:00
11:35 PM,44.6,30.9,59,30.23,10.0,SSW,5.8,-,N/A,,Overcast,210,2013-11-11 05:35:00
11:55 PM,44.6,31.1,59,30.23,10.0,SW,8.1,-,N/A,,Overcast,220,2013-11-11 05:55:00